User: anonymous   Login
Location: Camp Creek
(33.9000°N, 111.8167°W)
Time: 23:59:03
(UTC-07:00)
Language:

DELTA 2 R/B (1) - Orbit

View from above orbital plane
View from above orbital plane
View from above satellite
View from above satellite

Ground track
Ground track

The orbit data is extracted from the following two-line orbital elements,

1 27665U 03005C   17202.75408949 +.00000024 +00000-0 +43296-4 0  9996
2 27665 039.5761 294.2584 0007585 135.3559 005.3861 14.28447712755784
Epoch (UTC): 21 July 2017 18:05:53
Eccentricity: 0.0007585
inclination: 39.5761°
perigee height: 791 km
apogee height: 802 km
right ascension of ascending node: 294.2584°
argument of perigee: 135.3559°
revolutions per day: 14.28447712
mean anomaly at epoch: 5.3861°
orbit number at epoch: 75578

The dashed part of the orbit path shows where the satellite is in the earth's shadow,  

DLR